Regional Weather Roundup
Issued by NWS

Home | Current Version | Previous Version | Graphics & Text | Print | Product List | Glossary On
Versions: 1 2 3 4 5 6 7 8 9 10 11 12 13 14 15 16 17 18 19 20 21 22 23 24
000
ASUS45 KCYS 230410
RWRWY

WYOMING REGIONAL WEATHER ROUNDUP
NATIONAL WEATHER SERVICE CHEYENNE WY
1000 PM MDT WED OCT 22 2014

NOTE:  "FAIR" INDICATES FEW OR NO CLOUDS BELOW 12,000 FEET
WITH NO SIGNIFICANT WEATHER AND/OR OBSTRUCTIONS TO VISIBILITY.

WYZ001-230500-
YELLOWSTONE NATIONAL PARK

CITY           SKY/WX    TMP DP  RH WIND       PRES   REMARKS
LK YELLOWSTONE   N/A     26  23  88 CALM      30.24F
W YELLOWSTONE  NOT AVBL

$$
WYZ002>013-054>058-071-098>099-230500-
NORTHERN WYOMING

CITY           SKY/WX    TMP DP  RH WIND       PRES   REMARKS
JACKSON        CLEAR     39  21  48 SW3       30.20F
CODY           CLEAR     54  25  32 W13G22    30.07R
GREYBULL       CLEAR     44  22  41 S3        30.05R
WORLAND        CLEAR     41  20  43 CALM      30.04R
SHERIDAN       CLEAR     34  24  67 S6        30.00S WCI  29
BUFFALO        CLEAR     41  23  48 SW8       30.05S
GILLETTE       CLEAR     44  19  36 S5        30.03R
HULETT         FAIR      41  28  60 W5        30.04
NEWCASTLE      FAIR      43  27  52 CALM      30.06

$$
WYZ014>020-022>026-101>103-230500-
CENTRAL WYOMING

CITY           SKY/WX    TMP DP  RH WIND       PRES   REMARKS
BIG PINEY      CLEAR     30  20  66 CALM      30.24R
PINEDALE       PTCLDY    28  27  93 W5        30.24F WCI  23
DUBOIS         FAIR      34  19  55 NW13      30.18S WCI  25
LANDER         PTCLDY    44  23  43 CALM      30.10R
RIVERTON       PTCLDY    47  16  29 NW13      30.11S
CASPER         CLEAR     45  16  31 SW14      30.11R
DOUGLAS        CLEAR     39  16  39 CALM      30.10S

$$
WYZ021-027>030-104>119-230500-
SOUTHERN WYOMING

CITY           SKY/WX    TMP DP  RH WIND       PRES   REMARKS
EVANSTON       CLEAR     42  21  43 S7        30.25S
KEMMERER       PTCLDY    36  18  48 W6        30.24F WCI  31
FORT BRIDGER   FAIR      43  20  40 W9        30.27S
ROCK SPRINGS   PTCLDY    40  22  48 S7        30.24S
DIXON          FAIR      41  34  77 CALM      30.27S
RAWLINS        CLEAR     36  21  54 S5        30.22S WCI  32
SARATOGA       FAIR      34  30  86 CALM      30.25S
LARAMIE        PTCLDY    38  23  55 SW8       30.21R WCI  32
CHEYENNE       PTCLDY    46  29  51 S6        30.18R
TORRINGTON     CLEAR     46  23  40 NW6       30.09R
PINE BLUFFS    FAIR      37  36  93 W5        30.15S WCI  34

$$



USA.gov is the U.S. government's official web portal to all federal, state and local government web resources and services.